Change the Weather History Date:

Saturday, March 9, 2013

  Actual Average Record
Temperature  
Mean Temperature 36 °F -  
Max Temperature 41 °F 44 °F 63 °F (1987)
Min Temperature 30 °F 26 °F 3 °F (2007)
Degree Days  
Heating Degree Days 30    
Moisture  
Dew Point 30 °F    
Average Humidity 76    
Maximum Humidity 96    
Minimum Humidity 67    
Precipitation  
Precipitation 0.00 in - - ()
Sea Level Pressure  
Sea Level Pressure 30.18 in    
Wind  
Wind Speed 20 mph (NNE)    
Max Wind Speed 28 mph    
Max Gust Speed 39 mph    
Visibility 10 miles    
Events      
Averages and records for this station are not official NWS values.
T = Trace of Precipitation, MM = Missing Value Source: NWS Daily Summary

Daily Weather History Graph

Daily Weather History Graph

Search for Another Location

Airport or City:

Trip Planner

Search our weather history database for the weather conditions in past years. The results will help you decide how hot, cold, wet, or windy it might be!

Date:

Astronomy

Mar. 09, 2013 Rise Set
Actual Time 6:03 AM EST 5:42 PM EST
Civil Twilight 5:36 AM EST 6:10 PM EST
Nautical Twilight 5:04 AM EST 6:42 PM EST
Astronomical Twilight 4:32 AM EST 7:14 PM EST
Moon 4:27 AM EST (3/9) 3:40 PM EST (3/9)
Length of Visible Light 12h 33m
Length of Day
11h 38m
Waning Crescent, 5% of the Moon is Illuminated
Mar 9
Waning Crescent
Mar 11
New
Mar 19
First Quarter
Mar 27
Full
Apr 3
Last Quarter

Hourly Weather History & Observations

Time (EST) Temp. Windchill Dew Point Humidity Pressure Visibility Wind Dir Wind Speed Gust Speed Precip Events Conditions
12:53 AM 39.0 °F 29.3 °F 30.0 °F 70% 30.04 in 10.0 mi NNE 19.6 mph 32.2 mph N/A   Scattered Clouds
1:53 AM 37.9 °F 27.3 °F 30.0 °F 73% 30.04 in 10.0 mi North 21.9 mph 29.9 mph N/A   Clear
2:53 AM 37.9 °F 26.8 °F 28.9 °F 70% 30.03 in 10.0 mi NNE 24.2 mph 38.0 mph N/A   Clear
3:53 AM 37.0 °F 25.9 °F 28.9 °F 73% 30.04 in 10.0 mi NNE 23.0 mph 32.2 mph N/A   Clear
4:53 AM 37.0 °F 27.0 °F 30.0 °F 76% 30.07 in 10.0 mi NNE 18.4 mph 33.4 mph N/A   Partly Cloudy
5:53 AM 36.0 °F 25.3 °F 30.0 °F 79% 30.09 in 10.0 mi NNE 19.6 mph 29.9 mph N/A   Mostly Cloudy
6:53 AM 36.0 °F 23.9 °F 28.9 °F 76% 30.11 in 10.0 mi NNE 25.3 mph 39.1 mph N/A   Mostly Cloudy
7:53 AM 37.0 °F 25.4 °F 30.0 °F 76% 30.14 in 10.0 mi NNE 25.3 mph 34.5 mph N/A   Overcast
8:53 AM 37.9 °F 26.1 °F 30.0 °F 73% 30.16 in 10.0 mi NNE 27.6 mph 35.7 mph N/A   Overcast
9:53 AM 39.0 °F 28.8 °F 30.0 °F 70% 30.16 in 10.0 mi NNE 21.9 mph 34.5 mph N/A   Overcast
10:22 AM 39.2 °F 28.3 °F 30.2 °F 70% 30.17 in 10.0 mi NNE 25.3 mph 33.4 mph N/A   Scattered Clouds
10:41 AM 39.2 °F 29.3 °F 30.2 °F 70% 30.17 in 10.0 mi NNE 20.7 mph 34.5 mph N/A   Mostly Cloudy
10:53 AM 39.9 °F 30.0 °F 30.0 °F 68% 30.17 in 10.0 mi NNE 21.9 mph 33.4 mph N/A   Overcast
11:53 AM 41.0 °F 31.6 °F 30.9 °F 67% 30.19 in 10.0 mi NNE 20.7 mph 28.8 mph N/A   Overcast
12:53 PM 39.9 °F 30.5 °F 30.9 °F 70% 30.19 in 10.0 mi NNE 19.6 mph 28.8 mph N/A   Overcast
1:53 PM 39.9 °F 30.5 °F 30.0 °F 68% 30.20 in 10.0 mi NNE 19.6 mph 31.1 mph N/A   Overcast
2:53 PM 39.0 °F 28.8 °F 30.0 °F 70% 30.21 in 10.0 mi NNE 21.9 mph 27.6 mph N/A   Overcast
3:53 PM 39.0 °F 29.3 °F 30.0 °F 70% 30.21 in 10.0 mi NE 19.6 mph 28.8 mph N/A   Scattered Clouds
4:53 PM 37.0 °F 27.7 °F 30.0 °F 76% 30.23 in 10.0 mi NE 16.1 mph 23.0 mph N/A   Clear
5:53 PM 35.1 °F 25.2 °F 28.9 °F 78% 30.26 in 10.0 mi NNE 16.1 mph 20.7 mph N/A   Clear
6:53 PM 34.0 °F 24.6 °F 28.9 °F 82% 30.28 in 10.0 mi NNE 13.8 mph - N/A   Clear
7:53 PM 34.0 °F 26.0 °F 30.0 °F 85% 30.28 in 10.0 mi NNE 10.4 mph - N/A   Clear
8:53 PM 35.1 °F 26.9 °F 30.9 °F 85% 30.29 in 10.0 mi NE 11.5 mph - N/A   Clear
9:53 PM 34.0 °F 28.0 °F 30.9 °F 89% 30.30 in 10.0 mi NNE 6.9 mph - N/A   Clear
10:53 PM 30.9 °F 25.2 °F 28.9 °F 92% 30.30 in 10.0 mi North 5.8 mph - N/A   Clear
11:53 PM 30.0 °F 24.1 °F 28.9 °F 96% 30.30 in 10.0 mi NNW 5.8 mph - N/A   Clear